Regional Weather Roundup
Issued by NWS

Home | Current Version | Previous Version | Text Only | Print | Product List | Glossary Off
Versions: 1 2 3 4 5 6 7 8 9 10 11 12 13 14 15 16 17 18 19 20 21 22 23 24 25 26 27 28 29 30 31 32 33 34 35 36 37 38 39 40 41 42 43 44 45 46 47 48 49 50

000
ASUS45 KABQ 201210
RWRNM
NEW MEXICO REGIONAL WEATHER ROUNDUP
NATIONAL WEATHER SERVICE ALBUQUERQUE NM
600 AM MDT WED SEP 20 2017

NOTE: "FAIR" MEANS FEW OR NO CLOUDS BELOW 12,000 FEET AGL WITH NO
       SIGNIFICANT WEATHER OR OBSTRUCTIONS TO VISION.

      THIS PRODUCT IS RELEASED AS TWO VERSIONS.  ONE VERSION NEAR
      THE TOP OF THE HOUR CONTAINING PRELIMINARY DATA FROM ALBUQUERQUE
      AND OTHER STATIONS.  A FINAL VERSION WITH ADDITIONAL DATA IS
      ISSUED ABOUT 10 MINUTES AFTER THE HOUR.

NMZ501-503-504-510>518-201300-
NORTHWEST PLATEAU/NORTHCENTRAL MOUNTAINS

CITY           SKY/WX    TMP DP  RH WIND       PRES   REMARKS
FARMINGTON     FAIR      47  25  42 N3        30.02R
6HR MIN TEMP:  46; 6HR MAX TEMP:  66;

LOS ALAMOS     FAIR      60  28  29 W3        30.14S
SANTA FE       FAIR      54  32  43 W9        30.08S
6HR MIN TEMP:  51; 6HR MAX TEMP:  66;

TAOS           FAIR      43  24  47 E7        30.16R
ANGEL FIRE     FAIR      51  26  38 W22G36    30.16R

$$
NMZ402-403-502-505>509-201300-
WESTCENTRAL MOUNTAINS/SOUTHWEST MOUNTAINS

CITY           SKY/WX    TMP DP  RH WIND       PRES   REMARKS
GALLUP         NOT AVBL
GRANTS         FAIR      48  33  55 S3        30.14S
SILVER CITY    FAIR      49  39  68 NW7       30.09S

$$
NMZ407-409-411-412-201300-
SOUTHERN DESERTS

CITY           SKY/WX    TMP DP  RH WIND       PRES   REMARKS
DEMING         FAIR      59  48  67 W8        30.04R
6HR MIN TEMP:  59; 6HR MAX TEMP:  73;

LAS CRUCES     FAIR      63  44  51 W9        30.04R
HOLLOMAN AFB   FAIR      64  43  46 SE7       29.99R
ALAMOGORDO     FAIR      63  41  45 S9        29.99R
T OR C         FAIR      65  41  41 NW8       30.01S
6HR MIN TEMP:  63; 6HR MAX TEMP:  74;


$$
NMZ519>523-201300-
CENTRAL VALLEYS/CENTRAL HIGHLANDS

CITY           SKY/WX    TMP DP  RH WIND       PRES   REMARKS
ALBUQUERQUE    FAIR      60  37  42 CALM      30.06R
6HR MIN TEMP:  59; 6HR MAX TEMP:  70;

DOUBLE EAGLE   CLEAR     54  37  54 SW8       30.08S
MORIARTY ARPT  FAIR      62  35  37 NW3       30.10R
CLINES CORNERS FAIR      53  33  46 W5        30.14R
6HR MIN TEMP:  53; 6HR MAX TEMP:  60;

BELEN          FAIR      55  34  45 CALM      30.05S
6HR MIN TEMP:  55; 6HR MAX TEMP:  68;

SOCORRO        FAIR      59  37  43 W6        30.02S
6HR MIN TEMP:  58; 6HR MAX TEMP:  75;


$$
NMZ524>526-539-540-201300-
SOUTHCENTRAL MOUNTAINS

CITY           SKY/WX    TMP DP  RH WIND       PRES   REMARKS
RUIDOSO        FAIR      57  39  51 SW5       30.15S

$$
NMZ527>531-201300-
NORTHEAST HIGHLANDS/NORTHEAST PLAINS

CITY           SKY/WX    TMP DP  RH WIND       PRES   REMARKS
LAS VEGAS      FAIR      56  24  29 VRB3      30.06R
6HR MIN TEMP:  52; 6HR MAX TEMP:  65;

RATON          FAIR      49  28  44 N8        30.00S
6HR MIN TEMP:  47; 6HR MAX TEMP:  63;

CLAYTON        FAIR      50  28  42 N14       29.99R
6HR MIN TEMP:  49; 6HR MAX TEMP:  67;


$$
NMZ532>537-201300-
EASTCENTRAL PLAINS

CITY           SKY/WX    TMP DP  RH WIND       PRES   REMARKS
SANTA ROSA     FAIR      66  36  32 W14G22    29.96S
TUCUMCARI      FAIR      57  37  47 NE16      29.93R
6HR MIN TEMP:  57; 6HR MAX TEMP:  70;

CANNON AFB     FAIR      61  39  44 W8        29.94R
6HR MIN TEMP:  57; 6HR MAX TEMP:  69;

CLOVIS AIRPORT FAIR      59  41  51 W10       29.93R

$$
NMZ028-029-538-201300-
SOUTHEAST PLAINS

CITY           SKY/WX    TMP DP  RH WIND       PRES   REMARKS
ROSWELL        FAIR      64  43  46 NW5       29.91R
6HR MIN TEMP:  64; 6HR MAX TEMP:  74;

ARTESIA        FAIR      68  43  40 W10       29.91S
CARLSBAD       FAIR      71  49  45 SW12      29.91R
6HR MIN TEMP:  71; 6HR MAX TEMP:  76;

HOBBS          CLEAR     61  55  82 W3        29.94R


$$




USA.gov is the U.S. government's official web portal to all federal, state and local government web resources and services.